Terminal Aerodrome Forecast
Issued by NWS

Home | Current Version | Previous Version | Graphics & Text | Print | Product List | Glossary On
Versions: 1 2 3 4 5 6 7 8 9 10 11 12 13 14
000
FTUS43 KIWX 280500 RRA
TAFSBN
TAF
KSBN 280554Z 2806/2906 00000KT P6SM BKN250
     FM281000 00000KT 3SM BR BKN250
     FM281400 35004KT P6SM SCT250=

USA.gov is the U.S. government's official web portal to all federal, state and local government web resources and services.